Monterey, CA

4:32 AM PST on December 11, 2016 (GMT -0800)
Monterey Peninsula

Weather History for KMRY - September, 2014

Change the Weather History Date:

Saturday, September 20, 2014

  Actual Average Record
Temperature  
Mean Temperature 65 °F 61 °F  
Max Temperature 69 °F 69 °F 92 °F (2015)
Min Temperature 61 °F 53 °F 48 °F (2003)
Degree Days  
Heating Degree Days 0    
Month to date heating degree days 31  
Since 1 July heating degree days 129  
Cooling Degree Days 0    
Month to date cooling degree days 13  
Year to date cooling degree days 89  
Growing Degree Days 14 (Base 50)    
Moisture  
Dew Point 58 °F    
Average Humidity 81    
Maximum Humidity 93    
Minimum Humidity 68    
Precipitation  
Precipitation 0.00 in - 0.01 in (2008)
Month to date precipitation 0.00  
Year to date precipitation 7.44  
Since 1 July precipitation 0.05  
Sea Level Pressure  
Sea Level Pressure 29.97 in    
Wind  
Wind Speed 6 mph (SW)    
Max Wind Speed 15 mph    
Max Gust Speed 20 mph    
Visibility 10 miles    
Events      
T = Trace of Precipitation, MM = Missing Value Source: NWS Daily Summary

Daily Weather History Graph

Daily Weather History Graph

Search for Another Location

Airport or City:

Trip Planner

Search our weather history database for the weather conditions in past years. The results will help you decide how hot, cold, wet, or windy it might be!

Date:

Astronomy

Sep. 20, 2014 Rise Set
Actual Time 6:53 AM PDT 7:07 PM PDT
Civil Twilight 6:27 AM PDT 7:32 PM PDT
Nautical Twilight 5:57 AM PDT 8:03 PM PDT
Astronomical Twilight 5:27 AM PDT 8:33 PM PDT
Moon 3:42 AM PDT (9/20) 5:10 PM PDT (9/20)
Length of Visible Light 13h 04m
Length of Day
12h 13m
Waning Crescent, 11% of the Moon is Illuminated
Sep 20
Waning Crescent
Sep 23
New
Oct 1
First Quarter
Oct 8
Full
Oct 15
Last Quarter

Hourly Weather History & Observations

Time (PDT) Temp. Dew Point Humidity Pressure Visibility Wind Dir Wind Speed Gust Speed Precip Events Conditions
12:54 AM 63.0 °F 59.0 °F 87% 29.95 in 10.0 mi SSW 3.5 mph - N/A   Overcast
1:54 AM 63.0 °F 60.1 °F 90% 29.95 in 10.0 mi WSW 4.6 mph - N/A   Overcast
2:54 AM 63.0 °F 59.0 °F 87% 29.94 in 10.0 mi WSW 5.8 mph - N/A   Overcast
3:54 AM 62.1 °F 59.0 °F 90% 29.94 in 10.0 mi West 4.6 mph - N/A   Overcast
4:54 AM 62.1 °F 59.0 °F 90% 29.93 in 8.0 mi Calm Calm - N/A   Overcast
5:54 AM 62.1 °F 59.0 °F 90% 29.95 in 9.0 mi SE 3.5 mph - N/A   Overcast
6:54 AM 61.0 °F 57.0 °F 87% 29.96 in 10.0 mi SE 4.6 mph - N/A   Overcast
7:54 AM 62.1 °F 57.9 °F 86% 29.97 in 10.0 mi East 4.6 mph - N/A   Overcast
8:29 AM 62.6 °F 59.0 °F 88% 29.95 in 9.0 mi Calm Calm - N/A   Overcast
8:54 AM 62.1 °F 57.9 °F 86% 29.99 in 10.0 mi ENE 3.5 mph - N/A   Overcast
9:41 AM 62.6 °F 57.2 °F 82% 29.96 in 10.0 mi Calm Calm - N/A   Overcast
9:54 AM 63.0 °F 59.0 °F 87% 30.00 in 10.0 mi Calm Calm - N/A   Overcast
10:54 AM 64.9 °F 59.0 °F 81% 30.01 in 10.0 mi West 5.8 mph - N/A   Overcast
11:54 AM 64.9 °F 59.0 °F 81% 30.00 in 10.0 mi NW 4.6 mph - N/A   Overcast
12:19 PM 66.2 °F 59.0 °F 78% 29.96 in 10.0 mi NW 9.2 mph - N/A   Overcast
12:54 PM 68.0 °F 59.0 °F 73% 30.00 in 10.0 mi WSW 11.5 mph - N/A   Mostly Cloudy
1:54 PM 66.9 °F 59.0 °F 76% 29.98 in 10.0 mi SW 10.4 mph - N/A   Mostly Cloudy
2:54 PM 68.0 °F 57.9 °F 70% 29.97 in 10.0 mi SW 11.5 mph - N/A   Overcast
3:54 PM 66.9 °F 57.9 °F 73% 29.96 in 10.0 mi SW 10.4 mph - N/A   Mostly Cloudy
4:54 PM 66.0 °F 57.9 °F 75% 29.97 in 10.0 mi SW 10.4 mph - N/A   Mostly Cloudy
5:54 PM 64.9 °F 57.9 °F 78% 29.97 in 10.0 mi WSW 10.4 mph - N/A   Overcast
6:54 PM 64.9 °F 57.9 °F 78% 29.98 in 10.0 mi SW 8.1 mph - N/A   Overcast
7:54 PM 64.9 °F 57.0 °F 75% 29.99 in 10.0 mi WSW 5.8 mph - N/A   Overcast
8:54 PM 64.0 °F 57.0 °F 78% 30.01 in 10.0 mi WSW 4.6 mph - N/A   Overcast
9:03 PM 64.4 °F 57.2 °F 77% 29.98 in 10.0 mi Calm Calm - N/A   Overcast
10:54 PM 63.0 °F 57.0 °F 81% 29.99 in 10.0 mi WSW 3.5 mph - N/A   Clear
11:43 PM 62.6 °F 55.4 °F 77% 29.95 in 10.0 mi South 3.5 mph - N/A   Mostly Cloudy
11:54 PM 62.1 °F 55.9 °F 80% 29.99 in 10.0 mi SSW 3.5 mph - N/A   Overcast